Погода в Овсянниковой

Россия / Тюменская область     58°17′27″N   68°04′29″E
темп.,
°C
ветер,
м/с
пор.,
м/с
влажн.,
%
обл.,
%
осадки,
мм/ч
давл.,
гПа
погр.,
м
6 мая, чт
чт623:00+17ююв61650100 0.0 996375
02:00+18ю71644100 0.0 992641
05:00+12зсз61369100 0.0 994669
08:00+12з8136453 0.2 9971369
11:00+14з8124091 0.4 10002477
14:00+13з8114085 0.0 10022299
17:00+13з7103860 0.0 10052483
20:00+10з510465 0.0 1007841
7 мая, пт
пт723:00+8з611565 0.0 1009868
02:00+6з611615 0.0 1011853
05:00+4з612645 0.0 1013750
08:00+7з712480 0.0 10151161
11:00+12з711330 0.0 10151532
14:00+17з812325 0.0 10151864
17:00+19з712367 0.0 10162287
20:00+16зюз4104785 0.0 1016336
8 мая, сб
сб823:00+15зюз4105277 0.0 1017267
02:00+12зюз4106229 0.0 1018183
05:00+10зюз35716 0.0 101879
08:00+16з245351 0.0 1019344
11:00+21з34338 0.0 10192319
14:00+22з4528100 0.0 10182749
17:00+22зсз332764 0.0 10182628
20:00+17с234479 0.0 101832
9 мая, вс
вс923:00+15св335198 0.0 101957
02:00+13св3459100 0.0 101872
05:00+13св3763100 0.0 1019139
08:00+16всв4751100 0.0 1020408
11:00+20всв5537100 0.0 10191489
14:00+22всв4532100 0.0 10192396
17:00+21всв5536100 0.0 10181815
20:00+17всв5105269 0.0 1019346
10 мая, пн
пн1023:00+13св366842 0.0 1020104
02:00+12св357522 0.0 102078
05:00+11всв25793 0.0 102189
08:00+16всв23580 0.0 1022388
11:00+21св32410 0.0 10221718
14:00+23с23295 0.0 10212277
17:00+23ссз23275 0.0 10202310
20:00+19с2241100 0.0 102011